User: anonymous   Login
Location: Unspecified
(0.0000°N, 0.0000°E)
Time: 19:09:36
(UTC+00:00)
Language:

FAST 2 (USA 228) - Orbit

View from above orbital plane
View from above orbital plane
View from above satellite
View from above satellite

Ground track
Ground track

The orbit data is extracted from the following two-line orbital elements,

1 37380U 10062M   21341.40490860  .00000124  00000-0  24297-4 0  9997
2 37380  71.9723 219.0050 0017704 328.4591  31.5510 14.79454361120967
Epoch (UTC): 07 December 2021 09:43:04
Eccentricity: 0.0017704
inclination: 71.9723°
perigee height: 618 km
apogee height: 643 km
right ascension of ascending node: 219.0050°
argument of perigee: 328.4591°
revolutions per day: 14.79454361
mean anomaly at epoch: 31.5510°
orbit number at epoch: 12096

The dashed part of the orbit path shows where the satellite is in the earth's shadow,  

DLR